Wind_Speed
34 35 35 36 36 37 37 38 37 37 38 39 40 39 37 38 39 39 38 38 38 37 37 38 38 38 39 39 39 39 39 39 39 39 39 39 40 40 40 40 40 40 41 41
34 34 34 35 37 38 38 40 39 38 38 40 40 39 38 38 38 39 39 39 38 38 38 38 38 39 39 39 39 40 40 40 40 40 40 40 40 40 41 41 41 41 41 42
32 32 32 33 35 37 38 39 38 38 39 40 41 40 38 38 39 40 40 39 39 39 39 39 39 39 39 40 40 41 41 41 41 41 41 41 41 41 41 41 41 41 42 42
29 29 30 32 33 36 37 37 38 38 39 40 41 42 38 39 39 40 40 40 39 40 40 39 39 39 39 40 41 41 42 42 42 42 42 42 42 42 42 42 42 42 42 42
27 27 28 29 31 33 35 35 36 37 38 40 40 42 39 39 39 39 39 40 39 39 39 39 39 39 40 40 41 42 42 42 43 43 43 42 42 43 43 43 43 42 42 42
27 27 27 27 28 30 32 34 35 36 37 40 39 41 40 38 37 37 38 39 38 38 39 39 39 39 39 40 41 42 42 42 43 43 43 43 43 43 43 43 43 43 43 43
26 27 27 27 27 29 30 31 33 34 35 37 37 39 40 38 36 37 37 37 37 38 38 39 39 40 40 40 41 42 42 42 42 43 43 43 43 43 43 44 44 43 43 43
25 25 26 26 26 27 28 29 32 34 35 36 36 38 38 37 37 37 37 37 37 37 38 38 39 39 40 40 41 41 42 42 43 43 43 44 44 43 43 44 44 44 44 44
25 25 24 25 25 25 27 28 29 32 34 35 35 37 36 36 36 36 36 36 37 37 37 37 38 38 39 40 41 42 42 43 43 43 44 44 44 44 44 44 44 44 44 44
25 25 24 25 27 26 26 28 29 31 33 35 34 34 35 34 34 35 35 35 35 36 36 36 36 37 38 39 40 42 42 43 44 44 44 44 44 45 45 45 45 44 44 44
26 27 26 26 27 27 27 27 30 31 32 34 36 34 33 33 33 34 34 35 35 35 35 36 37 37 38 39 40 41 42 42 43 43 43 44 44 45 44 44 44 44 44 44
26 27 27 27 26 27 27 27 29 31 32 33 34 34 33 34 33 34 34 34 35 36 36 36 37 37 37 38 40 41 41 41 42 43 43 43 44 44 44 44 44 44 44 44
26 27 28 27 27 27 27 27 29 30 32 33 33 33 32 32 33 34 35 35 35 36 36 36 37 37 37 38 39 40 40 40 41 42 42 43 43 43 44 44 45 45 45 45
28 28 27 27 26 28 28 28 29 30 32 33 32 32 32 32 32 33 34 35 36 36 37 37 38 38 38 38 38 39 39 40 41 41 41 42 43 43 43 43 44 45 45 45
29 29 28 28 27 28 29 30 30 30 31 33 32 32 32 33 33 32 33 34 35 36 37 37 37 38 38 39 38 38 39 40 41 41 41 42 42 42 42 42 43 44 45 46
29 30 30 30 30 29 29 29 29 30 31 32 32 32 32 33 34 33 33 34 34 35 36 36 37 37 38 38 38 38 39 40 40 41 41 41 41 41 41 42 43 43 44 44
28 29 30 30 29 29 28 28 28 29 31 31 32 31 31 32 33 34 34 34 34 34 35 35 35 35 36 37 37 37 38 38 39 40 40 40 40 41 41 42 42 42 43 43
27 28 29 29 29 30 28 28 28 29 29 30 31 31 31 32 32 33 33 33 33 34 34 35 35 35 35 35 36 36 37 37 37 37 39 40 41 41 42 42 42 42 42 43
25 26 27 28 28 29 28 28 27 27 27 28 30 30 31 31 32 33 33 34 34 33 34 35 36 36 36 36 35 36 36 36 37 37 38 39 40 41 42 42 42 41 41 42
25 26 27 27 28 28 27 27 27 27 27 28 29 30 31 31 32 32 34 35 35 35 35 35 35 35 35 35 35 36 36 37 37 38 38 38 39 39 40 41 42 41 41 41
24 25 26 26 27 27 27 27 28 28 28 28 29 30 30 31 31 32 33 35 36 36 36 35 35 35 36 36 36 37 37 37 37 37 37 38 38 38 39 40 40 41 41 41
24 25 26 27 27 26 26 26 27 28 28 29 29 29 30 30 31 31 32 33 34 35 36 36 36 36 36 37 37 37 37 37 37 37 37 37 37 38 38 39 39 39 39 40
24 25 26 26 26 26 26 27 27 28 28 28 29 30 31 31 31 31 31 32 32 33 34 34 35 35 36 36 37 37 37 37 37 37 37 37 37 37 37 37 37 38 39 39
24 25 25 25 24 25 26 26 27 27 27 28 29 30 30 30 31 31 31 31 31 32 32 32 33 33 34 35 36 37 38 38 38 37 36 36 36 37 37 37 37 37 37 38
25 26 26 25 23 24 25 26 26 26 27 27 28 28 29 29 29 30 30 30 30 31 31 32 32 32 33 34 35 35 35 35 36 37 37 37 37 37 37 37 38 37 38 38
25 25 25 25 25 25 25 25 26 26 27 27 27 28 28 28 29 29 29 30 29 29 29 31 32 32 32 32 33 33 33 33 33 34 35 36 37 37 37 38 38 38 38 39
Wind_Direction
262 259 258 257 257 258 257 257 257 255 254 255 255 255 254 253 254 255 256 256 256 255 255 255 255 255 255 256 256 257 258 258 260 260 261 262 263 263 263 263 263 262 261 261
263 259 260 258 256 256 256 258 258 257 256 257 257 256 255 253 254 255 256 256 256 256 256 255 256 256 256 256 256 257 258 259 260 261 261 262 263 263 263 263 263 262 261 261
265 263 260 258 256 256 257 258 258 259 258 259 258 257 255 255 255 255 255 256 256 256 256 256 256 257 257 257 257 258 259 260 260 261 261 262 263 264 263 264 264 263 262 262
266 264 260 258 257 257 258 258 258 258 258 258 259 260 256 256 256 256 255 255 256 256 256 256 256 256 257 257 258 258 259 260 261 261 261 261 262 263 264 264 264 263 262 261
268 265 262 261 260 260 260 258 259 259 260 259 259 261 259 258 257 257 256 256 256 256 256 256 257 257 257 258 258 259 260 260 261 261 261 261 262 263 263 263 263 262 262 261
268 263 262 265 263 261 260 259 260 261 261 260 260 262 261 260 260 259 258 257 256 257 256 256 257 258 259 259 258 259 260 261 260 261 261 261 262 263 263 263 263 262 261 261
268 263 263 265 263 262 260 259 259 260 260 262 261 262 263 263 262 260 259 258 257 257 258 257 258 258 259 260 260 259 260 261 261 261 261 261 262 263 262 263 262 261 261 261
271 265 263 264 264 263 261 260 261 263 264 264 263 265 266 265 263 262 260 259 259 258 258 259 259 259 260 261 261 260 260 261 261 261 261 261 261 261 262 262 262 261 261 261
274 270 267 264 264 263 261 261 262 265 267 266 266 266 266 265 264 263 261 259 258 258 259 260 260 260 261 262 261 261 261 261 260 260 260 260 260 260 260 260 260 260 260 261
274 271 269 266 264 263 264 264 264 264 266 267 269 269 268 267 266 264 263 261 260 259 260 260 260 261 262 263 263 263 263 262 260 259 259 259 259 259 259 259 260 260 259 259
273 273 273 270 267 265 264 264 263 266 266 267 270 271 272 270 268 266 265 264 261 261 260 261 261 262 263 263 263 263 263 262 261 260 259 259 259 259 259 259 259 259 259 259
276 275 275 273 271 268 267 267 265 264 265 269 272 272 272 272 269 267 265 263 262 262 262 263 263 264 264 264 265 265 263 262 261 260 259 259 259 259 258 258 259 259 258 258
276 275 274 273 272 270 269 268 268 269 266 268 270 272 273 273 270 269 267 265 264 263 263 264 264 265 266 266 267 266 264 263 262 261 260 259 259 259 259 259 259 258 258 259
277 275 273 272 274 271 268 266 267 268 268 269 269 270 271 272 271 269 267 265 264 264 265 266 267 266 267 267 267 267 265 263 263 263 262 261 260 260 259 259 258 258 258 259
276 275 274 273 274 273 270 269 269 268 270 270 270 270 270 270 271 270 268 266 265 266 268 268 268 268 268 268 268 267 265 264 263 263 263 261 261 260 260 260 260 259 259 260
277 277 276 275 274 275 272 272 271 269 270 270 270 270 270 269 269 269 268 266 265 266 268 269 268 268 268 269 268 267 265 264 263 263 262 261 261 260 260 261 261 260 260 260
279 278 277 276 275 274 273 274 274 273 272 270 270 269 269 268 268 268 267 266 265 266 267 267 267 268 269 269 268 268 266 265 264 263 262 262 262 261 261 261 261 261 260 260
281 280 279 278 275 274 277 277 276 276 275 272 271 270 269 269 269 268 267 267 267 267 267 266 266 266 268 269 268 268 267 266 265 264 263 263 263 262 262 262 261 261 261 261
285 283 282 282 280 277 276 277 277 277 275 274 273 272 271 270 270 269 268 268 268 268 267 266 266 266 267 267 268 268 268 268 266 265 265 265 265 263 263 262 262 262 262 262
285 284 283 283 282 280 278 277 278 278 277 276 276 273 272 271 272 270 270 270 269 267 267 267 266 266 267 267 268 269 269 270 269 267 266 266 266 265 263 263 263 263 263 263
286 285 283 282 282 282 280 278 278 278 279 278 277 276 274 273 274 274 272 271 269 268 268 267 267 266 266 268 269 270 270 270 269 268 267 266 266 265 265 264 264 263 263 263
288 287 284 281 281 282 281 279 278 278 279 279 278 277 276 275 275 276 275 273 270 268 268 268 268 268 268 268 269 269 269 269 268 267 267 267 266 265 266 266 264 263 263 263
286 286 284 282 281 281 281 281 281 280 280 280 278 277 277 276 276 276 275 274 273 273 272 270 270 270 269 268 269 269 269 269 268 268 267 266 265 265 265 266 265 264 265 265
287 284 282 281 280 278 280 282 282 282 282 281 279 278 277 277 276 276 276 276 275 273 273 273 272 272 272 272 271 271 270 269 268 267 266 265 265 265 265 265 266 266 267 267
288 283 281 280 280 281 282 283 282 282 281 281 280 279 279 278 277 277 277 277 276 275 273 273 273 274 274 274 273 272 271 270 268 267 266 265 265 266 265 265 266 267 268 268
290 286 283 281 280 281 283 283 284 283 282 280 281 281 281 281 281 280 279 278 277 276 276 275 275 275 275 276 275 273 272 271 270 268 267 266 266 265 265 265 266 267 267 268
Height
5664 5665 5666 5668 5669 5671 5672 5673 5674 5677 5678 5679 5681 5684 5686 5688 5689 5691 5693 5694 5695 5697 5698 5699 5700 5701 5702 5703 5704 5706 5707 5707 5708 5709 5709 5710 5710 5710 5710 5710 5710 5711 5711 5712
5655 5655 5658 5658 5659 5660 5661 5662 5665 5667 5668 5668 5670 5673 5676 5677 5679 5681 5682 5684 5685 5686 5687 5689 5690 5690 5692 5693 5694 5695 5696 5697 5698 5699 5699 5699 5699 5699 5700 5699 5699 5700 5700 5701
5645 5648 5648 5648 5649 5650 5651 5653 5655 5657 5658 5658 5659 5661 5665 5666 5667 5669 5671 5673 5674 5675 5677 5678 5679 5681 5682 5683 5684 5685 5686 5687 5687 5688 5688 5688 5688 5688 5689 5689 5689 5689 5689 5690
5636 5637 5638 5638 5640 5641 5642 5644 5645 5646 5646 5647 5649 5649 5654 5655 5656 5658 5660 5662 5663 5665 5666 5667 5669 5670 5671 5672 5673 5674 5674 5675 5676 5676 5676 5677 5678 5678 5679 5679 5678 5678 5678 5679
5628 5629 5629 5630 5632 5632 5633 5635 5636 5636 5636 5636 5637 5638 5642 5644 5646 5648 5650 5651 5653 5654 5655 5657 5658 5659 5660 5661 5661 5662 5663 5663 5664 5664 5665 5666 5666 5667 5667 5667 5667 5667 5667 5668
5621 5621 5621 5622 5623 5624 5625 5626 5626 5625 5625 5625 5628 5628 5630 5633 5636 5638 5639 5641 5642 5643 5644 5645 5646 5647 5648 5649 5649 5650 5651 5651 5652 5652 5653 5654 5654 5655 5655 5655 5656 5656 5656 5656
5613 5613 5613 5614 5614 5615 5616 5617 5616 5614 5614 5616 5619 5618 5621 5624 5626 5628 5629 5630 5631 5632 5633 5634 5635 5635 5636 5637 5637 5638 5639 5639 5640 5640 5641 5642 5642 5643 5643 5644 5644 5644 5645 5645
5605 5606 5606 5606 5606 5607 5607 5608 5608 5607 5606 5608 5609 5608 5613 5614 5615 5616 5617 5619 5620 5621 5622 5622 5623 5624 5625 5625 5625 5626 5626 5627 5627 5628 5629 5629 5630 5631 5631 5631 5632 5632 5633 5633
5597 5599 5599 5599 5599 5599 5599 5599 5600 5600 5598 5598 5599 5600 5602 5603 5604 5605 5606 5607 5608 5609 5610 5611 5612 5612 5613 5613 5613 5613 5614 5614 5615 5615 5616 5617 5617 5618 5619 5619 5620 5620 5621 5622
5590 5590 5592 5591 5591 5591 5592 5592 5591 5590 5589 5588 5590 5591 5593 5594 5594 5595 5595 5596 5597 5598 5599 5600 5600 5601 5601 5601 5601 5601 5601 5601 5602 5603 5603 5604 5605 5606 5606 5607 5608 5608 5609 5609
5583 5583 5584 5583 5583 5583 5584 5583 5582 5582 5581 5580 5580 5585 5584 5584 5584 5584 5585 5585 5586 5588 5588 5589 5589 5589 5589 5589 5588 5588 5588 5589 5589 5590 5591 5592 5593 5593 5594 5595 5595 5596 5597 5597
5575 5574 5575 5576 5576 5575 5575 5575 5574 5574 5573 5572 5572 5577 5575 5575 5574 5574 5574 5575 5575 5576 5577 5577 5578 5577 5577 5577 5576 5576 5576 5576 5577 5578 5578 5579 5580 5581 5582 5582 5583 5584 5585 5586
5567 5567 5567 5567 5569 5567 5566 5566 5566 5565 5565 5564 5564 5568 5566 5565 5564 5564 5564 5564 5564 5565 5565 5566 5566 5566 5565 5565 5565 5564 5564 5565 5565 5565 5566 5567 5568 5569 5570 5570 5571 5572 5573 5574
5559 5559 5560 5560 5558 5557 5557 5558 5557 5556 5555 5555 5556 5557 5557 5556 5555 5554 5554 5553 5554 5554 5554 5555 5554 5554 5554 5553 5553 5553 5553 5553 5553 5553 5554 5555 5556 5557 5558 5558 5559 5560 5561 5561
5551 5550 5550 5551 5550 5549 5548 5549 5548 5547 5546 5545 5546 5546 5547 5545 5545 5544 5543 5543 5543 5543 5544 5544 5543 5543 5543 5542 5541 5541 5541 5541 5541 5541 5542 5543 5543 5544 5545 5546 5547 5548 5548 5549
5542 5541 5541 5542 5541 5539 5539 5539 5538 5538 5537 5536 5536 5536 5536 5535 5534 5534 5533 5533 5532 5532 5532 5532 5532 5532 5531 5531 5530 5529 5529 5529 5529 5530 5530 5531 5531 5532 5533 5534 5535 5535 5536 5537
5534 5533 5532 5532 5532 5530 5530 5531 5529 5528 5527 5527 5526 5527 5525 5525 5524 5524 5523 5523 5522 5522 5522 5521 5521 5521 5520 5520 5519 5518 5518 5518 5518 5518 5519 5519 5520 5521 5521 5522 5522 5523 5524 5525
5526 5524 5523 5522 5522 5521 5524 5521 5520 5518 5518 5517 5516 5516 5515 5515 5514 5514 5513 5513 5512 5512 5511 5510 5510 5510 5509 5509 5508 5507 5507 5507 5507 5507 5507 5508 5509 5509 5509 5510 5510 5511 5511 5512
5518 5516 5515 5514 5512 5512 5514 5512 5510 5509 5509 5508 5507 5506 5506 5505 5504 5504 5503 5502 5501 5501 5500 5500 5499 5499 5498 5498 5497 5497 5496 5496 5496 5496 5496 5496 5497 5497 5498 5498 5498 5499 5499 5500
5511 5509 5508 5505 5504 5504 5506 5503 5501 5501 5500 5499 5497 5496 5496 5495 5495 5495 5493 5492 5491 5490 5489 5489 5489 5488 5488 5487 5487 5486 5486 5485 5485 5485 5485 5485 5485 5485 5486 5486 5486 5487 5487 5487
5503 5501 5499 5498 5495 5495 5495 5494 5493 5493 5492 5490 5488 5487 5486 5485 5484 5484 5482 5481 5480 5479 5479 5478 5478 5477 5477 5477 5476 5475 5475 5474 5474 5474 5473 5473 5473 5473 5474 5474 5474 5475 5475 5475
5495 5493 5491 5490 5488 5490 5487 5485 5484 5483 5482 5480 5479 5478 5476 5475 5474 5473 5471 5470 5469 5469 5468 5467 5467 5466 5466 5465 5465 5464 5464 5463 5462 5462 5462 5462 5462 5462 5462 5462 5462 5462 5463 5463
5487 5486 5483 5483 5483 5480 5478 5476 5475 5474 5473 5471 5470 5468 5467 5466 5464 5463 5462 5460 5459 5458 5457 5457 5456 5455 5455 5454 5453 5453 5452 5452 5451 5451 5450 5450 5450 5450 5450 5450 5451 5451 5451 5451
5480 5478 5476 5474 5473 5471 5470 5468 5466 5465 5463 5462 5460 5459 5457 5456 5454 5453 5452 5451 5449 5448 5447 5446 5445 5445 5444 5443 5442 5441 5440 5439 5439 5439 5439 5439 5439 5439 5439 5439 5439 5439 5439 5439
5473 5470 5468 5466 5465 5463 5462 5460 5458 5456 5455 5453 5451 5450 5448 5446 5445 5444 5442 5441 5439 5438 5437 5436 5435 5434 5433 5432 5431 5429 5428 5427 5427 5427 5427 5427 5427 5428 5428 5428 5428 5428 5428 5427
5465 5462 5460 5459 5457 5455 5454 5452 5450 5448 5446 5445 5443 5441 5439 5437 5436 5434 5433 5431 5430 5428 5427 5426 5425 5424 5422 5421 5420 5418 5418 5417 5416 5416 5415 5415 5416 5416 5416 5416 5416 5415 5416 5415